Time,TemperatureF,DewpointF,PressureIn,WindDirection,WindDirectionDegrees,WindSpeedMPH,WindSpeedGustMPH,Humidity,HourlyPrecipIn,Conditions,Clouds,dailyrainin,SoftwareType,DateUTC
2013-02-24 00:01:00,34.0,23.0,29.87,South,184,0.0,-999.0,65,-99.99,,,-99.99,,2013-02-24 06:01:00,
2013-02-24 00:11:00,34.0,23.0,29.87,South,184,0.0,-999.0,65,-99.99,,,-99.99,,2013-02-24 06:11:00,
2013-02-24 00:21:00,34.0,23.0,29.88,South,184,0.0,-999.0,65,-99.99,,,-99.99,,2013-02-24 06:21:00,
2013-02-24 00:31:00,34.0,23.0,29.88,South,184,0.0,-999.0,65,-99.99,,,-99.99,,2013-02-24 06:31:00,
2013-02-24 00:41:00,34.0,23.0,29.88,South,184,0.0,-999.0,65,-99.99,,,-99.99,,2013-02-24 06:41:00,
2013-02-24 00:52:00,34.0,23.0,29.88,South,184,0.0,-999.0,65,-99.99,,,-99.99,,2013-02-24 06:52:00,
2013-02-24 01:01:00,34.0,23.0,29.88,South,184,0.0,-999.0,65,-99.99,,,-99.99,,2013-02-24 07:01:00,
2013-02-24 01:12:00,34.0,23.0,29.88,South,184,0.0,-999.0,65,-99.99,,,-99.99,,2013-02-24 07:12:00,
2013-02-24 01:21:00,33.0,23.0,29.87,South,182,0.0,-999.0,65,-99.99,,,-99.99,,2013-02-24 07:21:00,
2013-02-24 01:31:00,34.0,24.0,29.86,ESE,116,0.0,-999.0,66,-99.99,,,-99.99,,2013-02-24 07:31:00,
2013-02-24 01:41:00,34.0,24.0,29.86,ESE,116,0.0,-999.0,66,-99.99,,,-99.99,,2013-02-24 07:41:00,
2013-02-24 01:52:00,34.0,23.0,29.85,ESE,119,0.0,-999.0,65,-99.99,,,-99.99,,2013-02-24 07:52:00,
2013-02-24 02:01:00,34.0,24.0,29.84,East,99,0.0,-999.0,66,-99.99,,,-99.99,,2013-02-24 08:01:00,
2013-02-24 02:11:00,34.0,23.0,29.84,East,82,0.0,-999.0,65,-99.99,,,-99.99,,2013-02-24 08:11:00,
2013-02-24 02:22:00,34.0,23.0,29.84,East,82,0.0,-999.0,65,-99.99,,,-99.99,,2013-02-24 08:22:00,
2013-02-24 02:31:00,34.0,24.0,29.84,ESE,109,0.0,-999.0,66,-99.99,,,-99.99,,2013-02-24 08:31:00,
2013-02-24 02:42:00,34.0,24.0,29.84,ESE,109,0.0,-999.0,66,-99.99,,,-99.99,,2013-02-24 08:42:00,
2013-02-24 02:54:00,33.0,23.0,29.83,East,83,0.0,-999.0,67,-99.99,,,-99.99,,2013-02-24 08:54:00,
2013-02-24 03:01:00,33.0,23.0,29.83,East,85,0.0,-999.0,67,-99.99,,,-99.99,,2013-02-24 09:01:00,
2013-02-24 03:11:00,33.0,23.0,29.83,East,85,0.0,-999.0,67,-99.99,,,-99.99,,2013-02-24 09:11:00,
2013-02-24 03:21:00,33.0,24.0,29.83,East,92,0.0,-999.0,68,-99.99,,,-99.99,,2013-02-24 09:21:00,
2013-02-24 03:31:00,33.0,24.0,29.83,East,92,0.0,-999.0,69,-99.99,,,-99.99,,2013-02-24 09:31:00,
2013-02-24 03:41:00,33.0,24.0,29.83,East,92,0.0,-999.0,69,-99.99,,,-99.99,,2013-02-24 09:41:00,
2013-02-24 03:52:00,32.0,24.0,29.83,East,86,0.0,-999.0,71,-99.99,,,-99.99,,2013-02-24 09:52:00,
2013-02-24 04:01:00,32.0,24.0,29.82,East,99,0.0,-999.0,71,-99.99,,,-99.99,,2013-02-24 10:01:00,
2013-02-24 04:11:00,32.0,24.0,29.82,ESE,109,0.0,-999.0,71,-99.99,,,-99.99,,2013-02-24 10:11:00,
2013-02-24 04:21:00,32.0,24.0,29.82,ESE,109,0.0,-999.0,71,-99.99,,,-99.99,,2013-02-24 10:21:00,
2013-02-24 04:31:00,32.0,24.0,29.81,East,88,0.0,-999.0,72,-99.99,,,-99.99,,2013-02-24 10:31:00,
2013-02-24 04:41:00,32.0,24.0,29.81,East,88,0.0,-999.0,72,-99.99,,,-99.99,,2013-02-24 10:41:00,
2013-02-24 04:52:00,32.0,24.0,29.80,East,95,1.0,-999.0,72,-99.99,,,-99.99,,2013-02-24 10:52:00,
2013-02-24 05:01:00,32.0,24.0,29.80,ESE,103,1.0,-999.0,72,-99.99,,,-99.99,,2013-02-24 11:01:00,
2013-02-24 05:11:00,32.0,24.0,29.80,ESE,103,1.0,-999.0,72,-99.99,,,-99.99,,2013-02-24 11:11:00,
2013-02-24 05:21:00,32.0,24.0,29.80,SE,128,1.0,-999.0,72,-99.99,,,-99.99,,2013-02-24 11:21:00,
2013-02-24 05:32:00,32.0,24.0,29.81,ESE,103,1.0,-999.0,72,-99.99,,,-99.99,,2013-02-24 11:32:00,
2013-02-24 05:41:00,32.0,24.0,29.81,ESE,103,1.0,-999.0,72,-99.99,,,-99.99,,2013-02-24 11:41:00,
2013-02-24 05:53:00,32.0,24.0,29.82,SE,131,0.0,-999.0,73,-99.99,,,-99.99,,2013-02-24 11:53:00,
2013-02-24 06:01:00,32.0,24.0,29.83,SE,134,0.0,-999.0,73,-99.99,,,-99.99,,2013-02-24 12:01:00,
2013-02-24 06:11:00,32.0,24.0,29.83,SE,134,0.0,-999.0,73,-99.99,,,-99.99,,2013-02-24 12:11:00,
2013-02-24 06:21:00,32.0,25.0,29.83,SE,134,0.0,-999.0,74,-99.99,,,-99.99,,2013-02-24 12:21:00,
2013-02-24 06:32:00,31.0,24.0,29.83,SE,134,0.0,-999.0,76,-99.99,,,-99.99,,2013-02-24 12:32:00,
2013-02-24 06:46:00,31.0,24.0,29.83,SE,134,0.0,-999.0,76,-99.99,,,-99.99,,2013-02-24 12:46:00,
2013-02-24 06:56:00,31.0,25.0,29.82,SE,134,0.0,-999.0,77,-99.99,,,-99.99,,2013-02-24 12:56:00,
2013-02-24 07:09:00,30.0,24.0,29.82,ESE,103,0.0,-999.0,77,-99.99,,,-99.99,,2013-02-24 13:09:00,
2013-02-24 07:26:00,31.0,25.0,29.82,ESE,121,1.0,-999.0,77,-99.99,,,-99.99,,2013-02-24 13:26:00,
2013-02-24 07:33:00,31.0,24.0,29.83,ESE,117,0.0,-999.0,76,-99.99,,,-99.99,,2013-02-24 13:33:00,
2013-02-24 07:43:00,31.0,24.0,29.83,ESE,117,0.0,-999.0,76,-99.99,,,-99.99,,2013-02-24 13:43:00,
2013-02-24 07:54:00,32.0,25.0,29.83,ESE,119,0.0,-999.0,74,-99.99,,,-99.99,,2013-02-24 13:54:00,
2013-02-24 08:03:00,33.0,25.0,29.84,SE,145,1.0,-999.0,73,-99.99,,,-99.99,,2013-02-24 14:03:00,
2013-02-24 08:13:00,35.0,26.0,29.84,SSE,147,0.0,-999.0,70,-99.99,,,-99.99,,2013-02-24 14:13:00,
2013-02-24 08:23:00,35.0,26.0,29.84,SSE,147,0.0,-999.0,70,-99.99,,,-99.99,,2013-02-24 14:23:00,
2013-02-24 08:33:00,35.0,26.0,29.85,SE,141,0.0,-999.0,68,-99.99,,,-99.99,,2013-02-24 14:33:00,
2013-02-24 08:43:00,35.0,26.0,29.85,SE,141,0.0,-999.0,68,-99.99,,,-99.99,,2013-02-24 14:43:00,
2013-02-24 08:54:00,37.0,27.0,29.85,SSE,150,1.0,-999.0,67,-99.99,,,-99.99,,2013-02-24 14:54:00,
2013-02-24 09:02:00,38.0,28.0,29.85,SSE,148,1.0,-999.0,66,-99.99,,,-99.99,,2013-02-24 15:02:00,
2013-02-24 09:13:00,40.0,29.0,29.85,SE,140,1.0,-999.0,65,-99.99,,,-99.99,,2013-02-24 15:13:00,
2013-02-24 09:22:00,40.0,29.0,29.85,SE,140,1.0,-999.0,65,-99.99,,,-99.99,,2013-02-24 15:22:00,
2013-02-24 09:32:00,41.0,30.0,29.85,SSW,200,1.0,-999.0,64,-99.99,,,-99.99,,2013-02-24 15:32:00,
2013-02-24 09:42:00,41.0,30.0,29.85,SSW,200,1.0,-999.0,64,-99.99,,,-99.99,,2013-02-24 15:42:00,
2013-02-24 09:53:00,42.0,30.0,29.85,SSE,164,2.0,-999.0,63,-99.99,,,-99.99,,2013-02-24 15:53:00,
2013-02-24 10:01:00,43.0,31.0,29.85,SSE,150,2.0,-999.0,62,-99.99,,,-99.99,,2013-02-24 16:01:00,
2013-02-24 10:11:00,46.0,32.0,29.85,SSW,196,1.0,-999.0,58,-99.99,,,-99.99,,2013-02-24 16:11:00,
2013-02-24 10:21:00,46.0,32.0,29.85,SSW,196,1.0,-999.0,58,-99.99,,,-99.99,,2013-02-24 16:21:00,
2013-02-24 10:32:00,46.0,32.0,29.84,SSE,152,3.0,-999.0,58,-99.99,,,-99.99,,2013-02-24 16:32:00,
2013-02-24 10:41:00,46.0,32.0,29.84,SSE,152,3.0,-999.0,58,-99.99,,,-99.99,,2013-02-24 16:41:00,
2013-02-24 10:52:00,47.0,33.0,29.84,South,175,2.0,-999.0,58,-99.99,,,-99.99,,2013-02-24 16:52:00,
2013-02-24 11:01:00,48.0,34.0,29.84,SE,136,3.0,-999.0,58,-99.99,,,-99.99,,2013-02-24 17:01:00,
2013-02-24 11:11:00,48.0,34.0,29.84,SE,136,3.0,-999.0,58,-99.99,,,-99.99,,2013-02-24 17:11:00,
2013-02-24 11:21:00,49.0,34.0,29.84,SE,140,2.0,-999.0,56,-99.99,,,-99.99,,2013-02-24 17:21:00,
2013-02-24 11:32:00,50.0,34.0,29.83,SE,137,3.0,-999.0,54,-99.99,,,-99.99,,2013-02-24 17:32:00,
2013-02-24 11:41:00,50.0,34.0,29.83,SE,137,3.0,-999.0,54,-99.99,,,-99.99,,2013-02-24 17:41:00,
2013-02-24 11:52:00,51.0,34.0,29.83,SSE,162,2.0,-999.0,52,-99.99,,,-99.99,,2013-02-24 17:52:00,
2013-02-24 12:01:00,51.0,34.0,29.82,South,189,2.0,-999.0,52,-99.99,,,-99.99,,2013-02-24 18:01:00,
2013-02-24 12:11:00,51.0,34.0,29.82,South,189,2.0,-999.0,52,-99.99,,,-99.99,,2013-02-24 18:11:00,
2013-02-24 12:22:00,53.0,34.0,29.81,ESE,121,2.0,-999.0,49,-99.99,,,-99.99,,2013-02-24 18:22:00,
2013-02-24 12:31:00,53.0,34.0,29.81,SSE,160,3.0,-999.0,49,-99.99,,,-99.99,,2013-02-24 18:31:00,
2013-02-24 12:42:00,53.0,34.0,29.81,SSE,160,3.0,-999.0,49,-99.99,,,-99.99,,2013-02-24 18:42:00,
2013-02-24 12:52:00,54.0,34.0,29.80,SE,144,3.0,-999.0,47,-99.99,,,-99.99,,2013-02-24 18:52:00,
2013-02-24 13:01:00,55.0,35.0,29.79,SE,131,2.0,-999.0,46,-99.99,,,-99.99,,2013-02-24 19:01:00,
2013-02-24 13:11:00,55.0,35.0,29.79,SE,131,2.0,-999.0,46,-99.99,,,-99.99,,2013-02-24 19:11:00,
2013-02-24 13:22:00,56.0,34.0,29.78,SSW,199,2.0,-999.0,44,-99.99,,,-99.99,,2013-02-24 19:22:00,
2013-02-24 13:32:00,56.0,34.0,29.77,South,185,3.0,-999.0,44,-99.99,,,-99.99,,2013-02-24 19:32:00,
2013-02-24 13:41:00,56.0,34.0,29.77,South,185,3.0,-999.0,44,-99.99,,,-99.99,,2013-02-24 19:41:00,
2013-02-24 13:52:00,57.0,35.0,29.76,SSW,205,3.0,-999.0,44,-99.99,,,-99.99,,2013-02-24 19:52:00,
2013-02-24 14:02:00,57.0,35.0,29.75,SE,136,3.0,-999.0,44,-99.99,,,-99.99,,2013-02-24 20:02:00,
2013-02-24 14:11:00,57.0,35.0,29.75,SE,136,3.0,-999.0,44,-99.99,,,-99.99,,2013-02-24 20:11:00,
2013-02-24 14:21:00,58.0,36.0,29.73,South,185,3.0,-999.0,43,-99.99,,,-99.99,,2013-02-24 20:21:00,
2013-02-24 14:31:00,58.0,35.0,29.73,South,179,3.0,-999.0,42,-99.99,,,-99.99,,2013-02-24 20:31:00,
2013-02-24 14:41:00,59.0,35.0,29.72,SE,144,3.0,-999.0,41,-99.99,,,-99.99,,2013-02-24 20:41:00,
2013-02-24 14:52:00,59.0,35.0,29.72,SE,144,3.0,-999.0,41,-99.99,,,-99.99,,2013-02-24 20:52:00,
2013-02-24 15:01:00,59.0,35.0,29.71,South,175,4.0,-999.0,40,-99.99,,,-99.99,,2013-02-24 21:01:00,
2013-02-24 15:11:00,59.0,35.0,29.71,South,175,4.0,-999.0,40,-99.99,,,-99.99,,2013-02-24 21:11:00,
2013-02-24 15:21:00,59.0,37.0,29.70,ESE,121,5.0,-999.0,44,-99.99,,,-99.99,,2013-02-24 21:21:00,
2013-02-24 15:32:00,59.0,38.0,29.70,NE,44,4.0,-999.0,45,-99.99,,,-99.99,,2013-02-24 21:32:00,
2013-02-24 15:41:00,59.0,38.0,29.70,NE,44,4.0,-999.0,45,-99.99,,,-99.99,,2013-02-24 21:41:00,
2013-02-24 15:52:00,59.0,38.0,29.69,SSE,152,5.0,-999.0,45,-99.99,,,-99.99,,2013-02-24 21:52:00,
2013-02-24 16:01:00,59.0,38.0,29.68,SSE,147,4.0,-999.0,45,-99.99,,,-99.99,,2013-02-24 22:01:00,
2013-02-24 16:11:00,59.0,38.0,29.68,SSE,147,4.0,-999.0,45,-99.99,,,-99.99,,2013-02-24 22:11:00,
2013-02-24 16:21:00,59.0,38.0,29.67,ENE,75,3.0,-999.0,45,-99.99,,,-99.99,,2013-02-24 22:21:00,
2013-02-24 16:31:00,58.0,36.0,29.67,ESE,119,5.0,-999.0,44,-99.99,,,-99.99,,2013-02-24 22:31:00,
2013-02-24 16:41:00,58.0,36.0,29.67,ESE,119,5.0,-999.0,44,-99.99,,,-99.99,,2013-02-24 22:41:00,
2013-02-24 16:52:00,58.0,36.0,29.66,SE,137,3.0,-999.0,44,-99.99,,,-99.99,,2013-02-24 22:52:00,
2013-02-24 17:02:00,58.0,36.0,29.66,SSE,147,4.0,-999.0,43,-99.99,,,-99.99,,2013-02-24 23:02:00,
2013-02-24 17:11:00,58.0,36.0,29.66,SSE,147,4.0,-999.0,43,-99.99,,,-99.99,,2013-02-24 23:11:00,
2013-02-24 17:21:00,57.0,35.0,29.67,East,88,4.0,-999.0,43,-99.99,,,-99.99,,2013-02-24 23:21:00,
2013-02-24 17:31:00,57.0,35.0,29.67,SE,134,3.0,-999.0,44,-99.99,,,-99.99,,2013-02-24 23:31:00,
2013-02-24 17:41:00,57.0,35.0,29.67,SE,134,3.0,-999.0,44,-99.99,,,-99.99,,2013-02-24 23:41:00,
2013-02-24 17:52:00,57.0,35.0,29.68,SE,131,2.0,-999.0,43,-99.99,,,-99.99,,2013-02-24 23:52:00,
2013-02-24 18:01:00,57.0,35.0,29.68,ESE,110,3.0,-999.0,44,-99.99,,,-99.99,,2013-02-25 00:01:00,
2013-02-24 18:11:00,57.0,35.0,29.68,ESE,110,3.0,-999.0,44,-99.99,,,-99.99,,2013-02-25 00:11:00,
2013-02-24 18:21:00,56.0,36.0,29.68,SE,138,2.0,-999.0,46,-99.99,,,-99.99,,2013-02-25 00:21:00,
2013-02-24 18:31:00,55.0,35.0,29.68,East,79,1.0,-999.0,46,-99.99,,,-99.99,,2013-02-25 00:31:00,
2013-02-24 18:42:00,55.0,35.0,29.68,East,79,1.0,-999.0,46,-99.99,,,-99.99,,2013-02-25 00:42:00,
2013-02-24 18:52:00,54.0,34.0,29.68,ESE,123,2.0,-999.0,47,-99.99,,,-99.99,,2013-02-25 00:52:00,
2013-02-24 19:01:00,54.0,35.0,29.68,ENE,64,1.0,-999.0,48,-99.99,,,-99.99,,2013-02-25 01:01:00,
2013-02-24 19:11:00,53.0,34.0,29.70,SE,124,2.0,-999.0,49,-99.99,,,-99.99,,2013-02-25 01:11:00,
2013-02-24 19:21:00,53.0,34.0,29.70,SE,124,2.0,-999.0,49,-99.99,,,-99.99,,2013-02-25 01:21:00,
2013-02-24 19:31:00,53.0,35.0,29.70,SE,126,1.0,-999.0,50,-99.99,,,-99.99,,2013-02-25 01:31:00,
2013-02-24 19:42:00,53.0,35.0,29.70,SE,126,1.0,-999.0,50,-99.99,,,-99.99,,2013-02-25 01:42:00,
2013-02-24 19:52:00,52.0,35.0,29.71,East,92,1.0,-999.0,52,-99.99,,,-99.99,,2013-02-25 01:52:00,
2013-02-24 20:01:00,52.0,35.0,29.71,ENE,68,1.0,-999.0,52,-99.99,,,-99.99,,2013-02-25 02:01:00,
2013-02-24 20:11:00,51.0,34.0,29.70,East,99,1.0,-999.0,53,-99.99,,,-99.99,,2013-02-25 02:11:00,
2013-02-24 20:21:00,51.0,34.0,29.70,East,99,1.0,-999.0,53,-99.99,,,-99.99,,2013-02-25 02:21:00,
2013-02-24 20:31:00,51.0,35.0,29.70,ESE,102,2.0,-999.0,54,-99.99,,,-99.99,,2013-02-25 02:31:00,
2013-02-24 20:41:00,51.0,35.0,29.70,ESE,102,2.0,-999.0,54,-99.99,,,-99.99,,2013-02-25 02:41:00,
2013-02-24 20:52:00,51.0,35.0,29.71,ESE,123,2.0,-999.0,54,-99.99,,,-99.99,,2013-02-25 02:52:00,
2013-02-24 21:01:00,51.0,35.0,29.72,ESE,112,1.0,-999.0,54,-99.99,,,-99.99,,2013-02-25 03:01:00,
2013-02-24 21:11:00,51.0,35.0,29.72,ESE,112,1.0,-999.0,54,-99.99,,,-99.99,,2013-02-25 03:11:00,
2013-02-24 21:21:00,50.0,34.0,29.72,ESE,123,1.0,-999.0,55,-99.99,,,-99.99,,2013-02-25 03:21:00,
2013-02-24 21:31:00,50.0,34.0,29.72,ESE,119,1.0,-999.0,55,-99.99,,,-99.99,,2013-02-25 03:31:00,
2013-02-24 21:41:00,50.0,34.0,29.72,ESE,119,1.0,-999.0,55,-99.99,,,-99.99,,2013-02-25 03:41:00,
2013-02-24 21:52:00,49.0,34.0,29.72,East,82,0.0,-999.0,57,-99.99,,,-99.99,,2013-02-25 03:52:00,
2013-02-24 22:01:00,49.0,34.0,29.72,East,95,1.0,-999.0,57,-99.99,,,-99.99,,2013-02-25 04:01:00,
2013-02-24 22:11:00,49.0,34.0,29.72,East,95,1.0,-999.0,57,-99.99,,,-99.99,,2013-02-25 04:11:00,
2013-02-24 22:21:00,48.0,34.0,29.72,ESE,102,1.0,-999.0,58,-99.99,,,-99.99,,2013-02-25 04:21:00,
2013-02-24 22:31:00,48.0,34.0,29.73,East,100,1.0,-999.0,58,-99.99,,,-99.99,,2013-02-25 04:31:00,
2013-02-24 22:41:00,48.0,34.0,29.73,East,100,1.0,-999.0,58,-99.99,,,-99.99,,2013-02-25 04:41:00,
2013-02-24 22:52:00,47.0,34.0,29.72,East,100,1.0,-999.0,60,-99.99,,,-99.99,,2013-02-25 04:52:00,
2013-02-24 23:01:00,47.0,34.0,29.73,East,97,0.0,-999.0,60,-99.99,,,-99.99,,2013-02-25 05:01:00,
2013-02-24 23:11:00,47.0,34.0,29.73,East,97,0.0,-999.0,60,-99.99,,,-99.99,,2013-02-25 05:11:00,
2013-02-24 23:22:00,46.0,34.0,29.72,East,80,1.0,-999.0,63,-99.99,,,-99.99,,2013-02-25 05:22:00,
2013-02-24 23:31:00,45.0,33.0,29.72,ENE,58,1.0,-999.0,63,-99.99,,,-99.99,,2013-02-25 05:31:00,
2013-02-24 23:41:00,45.0,33.0,29.72,ENE,58,1.0,-999.0,63,-99.99,,,-99.99,,2013-02-25 05:41:00,
2013-02-24 23:52:00,45.0,33.0,29.72,NE,55,1.0,-999.0,63,-99.99,,,-99.99,,2013-02-25 05:52:00,